Regional Weather Roundup
Issued by NWS Northern Indiana

Home | Current Version | Previous Version | Graphics & Text | Print | Product List | Glossary On
Versions: 1 2 3 4 5 6 7 8 9 10 11 12 13 14 15 16 17 18 19 20 21 22 23 24 25 26 27 28 29 30 31 32 33 34 35 36 37 38 39 40 41 42 43 44 45 46 47 48 49 50
000
ASUS43 KIWX 231300
RWRIWX

KIWX WEATHER ROUNDUP
NATIONAL WEATHER SERVICE NORTHERN INDIANA
900 AM EDT SAT JUL 23 2016

NOTE: "FAIR" INDICATES FEW OR NO CLOUDS BELOW 12,000 FEET WITH NO
SIGNIFICANT WEATHER AND/OR OBSTRUCTIONS TO VISIBILITY.

* THESE STATIONS ARE NOT UNDER NWS QUALITY CONTROL. THEY ALSO MAY NOT
  REPORT WEATHER SUCH AS PRECIPITATION OR FOG.

INZ001>027-231400-
NORTHERN INDIANA

CITY           SKY/WX    TMP DP  RH WIND       PRES   REMARKS
GARY*          PTSUNNY   82  82 100 CALM      30.01S HX  97
KNOX*          SUNNY     77  72  83 CALM      30.01R
SOUTH BEND     MOSUNNY   77  75  93 CALM      30.01S
ELKHART*       SUNNY     77  77 100 CALM      30.02S
GOSHEN         MOSUNNY   77  72  84 CALM      30.02R HAZE
MONTICELLO*    SUNNY     77  71  82 CALM      30.02R
WARSAW*        SUNNY     77  73  88 CALM      30.02S
ANGOLA*          N/A     75  70  83 CALM      30.02R
FORT WAYNE     MOSUNNY   77  73  87 SW3       30.03R
PERU/GRISSOM   SUNNY     78  76  94 W5        30.02R

$$
INZ028>050-231400-
CENTRAL INDIANA

CITY           SKY/WX    TMP DP  RH WIND       PRES   REMARKS
LAFAYETTE      MOSUNNY   77  75  93 SW3       30.02R
KOKOMO*        SUNNY     81  72  74 SW6       30.03R
MUNCIE*        MOSUNNY   80  73  79 CALM      30.04R
INDIANAPOLIS   MOSUNNY   80  73  79 CALM      30.03R

$$
MIZ043>046-050>051-056>058-064>065-071>073-077>080-231400-
SOUTHWEST LOWER MICHIGAN

CITY           SKY/WX    TMP DP  RH WIND       PRES   REMARKS
BATTLE CREEK   SUNNY     73  70  90 CALM      30.03R
BENTON HARBOR  SUNNY     79  73  82 SE5       29.98F
COLDWATER*     MOSUNNY   71  71 100 CALM      30.02S FOG
HOLLAND        SUNNY     75  70  84 E3        30.00S
GRAND RAPIDS   PTSUNNY   75  69  81 CALM      30.00F HAZE
KALAMAZOO      SUNNY     77  69  76 CALM      30.02R
STURGIS*       SUNNY     73  72  95 CALM      30.01S
THREE RIVERS*  FOG       73  72  98 CALM      30.02S VSB<1/4

$$
OHZ001>008-015>018-024>025-231400-
NORTHWEST OHIO

CITY           SKY/WX    TMP DP  RH WIND       PRES   REMARKS
DEFIANCE       SUNNY     78  71  79 CALM      30.01R
FINDLAY        SUNNY     80  70  71 NW3       30.01R
TOLEDO EXPRESS MOSUNNY   78  72  81 NW5       30.01R
TOLEDO METCALF SUNNY     79  73  82 NW5       30.01R
LIMA           SUNNY     76  74  93 W3        30.02S

$$
AND FOR LAKE MICHIGAN COASTAL AND OPEN LAKE BUOY OBSERVATIONS

STATION/POSITION TEMP    WIND        PRES    VSBY  WAVE
                 AIR SEA DIR/SP/G                  HT/PER
                 (F)     (DEG/KT/KT) (MB)    (MI)  (FT/S)
CALUMET HARBOR    79     210/  2/  3 1015.1R
MICHIGAN CITY     77     210/  5/  5   N/A
BURNS HARBOR      77     230/  4/  6 1016.3R
SAINT JOSEPH      76     180/  3/  4 1016.6R
SOUTH LAKE BUOY   74 73  200/  4/  6 1014.8          0
4 MI NW BRIDGMAN  76 75  170/  4/  4 1015.4R         0
MICHIGAN CITY     76 74  250/  4/  4   N/A           0

$$
&&



USA.gov is the U.S. government's official web portal to all federal, state and local government web resources and services.